| time (UTC) | temp F | wind direction | speed MPH | gust MPH | rain 1hr in | rain 24hr in | rain mn in | humidity % | barometer mb |
| 20260905152509 | 0 | 18 | 0.0 | 3.0 | 0.00 | 0.21 | 0.00 | 1012.6 | |
| 20260905152010 | 0 | 82 | 0.0 | 3.0 | 0.00 | 0.21 | 0.00 | 1012.7 | |
| 20260905151506 | 0 | 117 | 1.0 | 3.0 | 0.00 | 0.21 | 0.00 | 1012.7 | |
| 20260905151006 | 0 | 317 | 1.0 | 4.0 | 0.00 | 0.21 | 0.00 | 1012.7 | |
| 20260905150504 | 0 | 86 | 1.0 | 4.0 | 0.00 | 0.21 | 0.00 | 1012.7 | |
| 20260905150002 | 0 | 336 | 1.0 | 3.0 | 0.00 | 0.21 | 0.00 | 1012.8 | |
| 20260905145601 | 0 | 342 | 1.0 | 3.0 | 0.00 | 0.21 | 0.00 | 1012.7 | |
| 20260905145058 | 0 | 136 | 1.0 | 4.0 | 0.00 | 0.21 | 0.00 | 1012.7 | |
| 20260905144557 | 0 | 69 | 1.0 | 6.0 | 0.00 | 0.21 | 0.00 | 1012.7 | |
| 20260905144056 | 0 | 94 | 1.0 | 6.0 | 0.00 | 0.21 | 0.00 | 1012.6 | |
| 20260905143554 | 0 | 126 | 1.0 | 4.0 | 0.00 | 0.21 | 0.00 | 1012.7 | |
| 20260905143053 | 0 | 360 | 0.0 | 2.0 | 0.00 | 0.21 | 0.00 | 1012.7 | |
| 20260905142553 | 0 | 104 | 0.0 | 2.0 | 0.00 | 0.21 | 0.00 | 1012.7 | |
| 20260905142053 | 0 | 104 | 0.0 | 3.0 | 0.00 | 0.21 | 0.00 | 1012.7 | |
| 20260905141551 | 0 | 132 | 0.0 | 3.0 | 0.00 | 0.21 | 0.00 | 1012.7 | |
| 20260905141052 | 0 | 85 | 0.0 | 3.0 | 0.00 | 0.21 | 0.00 | 1012.6 | |
| 20260905140547 | 0 | 320 | 0.0 | 4.0 | 0.00 | 0.21 | 0.00 | 1012.4 | |
| 20260905140048 | 0 | 327 | 0.0 | 4.0 | 0.00 | 0.21 | 0.00 | 1012.4 | |
| 20260905135545 | 0 | 327 | 1.0 | 4.0 | 0.00 | 0.21 | 0.00 | 1012.3 | |
| 20260905135042 | 0 | 116 | 0.0 | 3.0 | 0.00 | 0.21 | 0.00 | 1012.2 | |
| 20260905134542 | 0 | 148 | 0.0 | 3.0 | 0.00 | 0.21 | 0.00 | 1012.2 | |
| 20260905134040 | 0 | 82 | 0.0 | 3.0 | 0.00 | 0.21 | 0.00 | 1012.2 | |
| 20260905133538 | 0 | 316 | 1.0 | 3.0 | 0.00 | 0.21 | 0.00 | 1012.2 | |
| 20260905133044 | 0 | 316 | 0.0 | 4.0 | 0.00 | 0.21 | 0.00 | 1012.1 | |
| 20260905132536 | 0 | 108 | 0.0 | 2.0 | 0.00 | 0.21 | 0.00 | 1012.3 | |
| 20260905132035 | 0 | 128 | 0.0 | 2.0 | 0.00 | 0.21 | 0.00 | 1012.3 | |
| 20260905131535 | 0 | 125 | 0.0 | 2.0 | 0.00 | 0.21 | 0.00 | 1012.3 | |
| 20260905131031 | 0 | 92 | 0.0 | 2.0 | 0.00 | 0.21 | 0.00 | 1012.1 | |
| 20260905130529 | 0 | 111 | 0.0 | 2.0 | 0.00 | 0.21 | 0.00 | 1012.0 | |
| 20260905130031 | 0 | 111 | 0.0 | 0.0 | 0.00 | 0.21 | 0.00 | 1011.9 | |
| 20260905125527 | 0 | 111 | 0.0 | 0.0 | 0.00 | 0.21 | 0.00 | 1011.9 | |
| 20260905125026 | 0 | 111 | 0.0 | 0.0 | 0.00 | 0.21 | 0.00 | 1012.0 | |
| 20260905124525 | 0 | 111 | 0.0 | 2.0 | 0.00 | 0.21 | 0.00 | 1012.1 | |
| 20260905124026 | 0 | 111 | 0.0 | 2.0 | 0.00 | 0.21 | 0.00 | 1012.3 | |
| 20260905123521 | 0 | 121 | 0.0 | 1.0 | 0.00 | 0.21 | 0.00 | 1012.2 | |
| 20260905123019 | 0 | 111 | 0.0 | 1.0 | 0.00 | 0.21 | 0.00 | 1012.3 | |
| 20260905122518 | 0 | 111 | 0.0 | 0.0 | 0.00 | 0.21 | 0.00 | 1012.4 | |
| 20260905122016 | 0 | 111 | 0.0 | 0.0 | 0.00 | 0.21 | 0.00 | 1012.3 | |
| 20260905121515 | 0 | 111 | 0.0 | 0.0 | 0.00 | 0.21 | 0.00 | 1012.3 | |
| 20260905121014 | 0 | 111 | 0.0 | 2.0 | 0.00 | 0.21 | 0.00 | 1012.4 | |
| 20260905120513 | 0 | 109 | 0.0 | 2.0 | 0.00 | 0.21 | 0.00 | 1012.3 | |
| 20260905120015 | 0 | 121 | 0.0 | 2.0 | 0.00 | 0.21 | 0.00 | 1012.1 | |
| 20260905115512 | 0 | 107 | 0.0 | 0.0 | 0.00 | 0.21 | 0.00 | 1012.2 | |
| 20260905115008 | 0 | 107 | 0.0 | 0.0 | 0.00 | 0.21 | 0.00 | 1012.2 | |
| 20260905114506 | 0 | 107 | 0.0 | 0.0 | 0.00 | 0.21 | 0.00 | 1012.2 | |
| 20260905114005 | 0 | 107 | 0.0 | 0.0 | 0.00 | 0.21 | 0.00 | 1012.0 | |
| 20260905113504 | 0 | 107 | 0.0 | 1.0 | 0.00 | 0.21 | 0.00 | 1012.0 | |
| 20260905113002 | 0 | 107 | 0.0 | 1.0 | 0.00 | 0.21 | 0.00 | 1012.0 | |
| 20260905112500 | 0 | 78 | 0.0 | 2.0 | 0.00 | 0.21 | 0.00 | 1011.9 | |
| 20260905112059 | 0 | 118 | 0.0 | 2.0 | 0.00 | 0.21 | 0.00 | 1011.9 | |
| 20260905111644 | 0 | 116 | 0.0 | 0.0 | 0.00 | 0.21 | 0.00 | 1012.0 | |
| 20260905111057 | 0 | 116 | 0.0 | 0.0 | 0.00 | 0.21 | 0.00 | 1012.1 | |
| 20260905110557 | 0 | 116 | 0.0 | 1.0 | 0.00 | 0.21 | 0.00 | 1011.9 | |
| 20260905110054 | 0 | 116 | 0.0 | 1.0 | 0.00 | 0.21 | 0.00 | 1012.0 | |
| 20260905105552 | 0 | 105 | 0.0 | 1.0 | 0.00 | 0.21 | 0.00 | 1011.9 | |
| 20260905105053 | 0 | 103 | 0.0 | 1.0 | 0.00 | 0.21 | 0.00 | 1011.9 | |
| 20260905104552 | 0 | 106 | 0.0 | 0.0 | 0.00 | 0.21 | 0.00 | 1011.8 | |
| 20260905104051 | 0 | 106 | 0.0 | 0.0 | 0.00 | 0.21 | 0.00 | 1011.7 | |
| 20260905103546 | 0 | 106 | 0.0 | 0.0 | 0.00 | 0.21 | 0.00 | 1011.6 | |
| 20260905103045 | 0 | 106 | 0.0 | 0.0 | 0.00 | 0.21 | 0.00 | 1011.7 | |
| 20260905102543 | 0 | 106 | 0.0 | 1.0 | 0.00 | 0.21 | 0.00 | 1011.6 | |
| 20260905102041 | 0 | 106 | 0.0 | 1.0 | 0.00 | 0.21 | 0.00 | 1011.5 | |
| 20260905101549 | 0 | 105 | 0.0 | 1.0 | 0.00 | 0.21 | 0.00 | 1011.4 | |
| 20260905101039 | 0 | 92 | 0.0 | 1.0 | 0.00 | 0.21 | 0.00 | 1011.4 | |
| 20260905100537 | 0 | 100 | 0.0 | 0.0 | 0.00 | 0.21 | 0.00 | 1011.5 | |
| 20260905100043 | 0 | 100 | 0.0 | 0.0 | 0.00 | 0.21 | 0.00 | 1011.4 | |
| 20260905095534 | 0 | 100 | 0.0 | 0.0 | 0.00 | 0.21 | 0.00 | 1011.4 | |
| 20260905095032 | 0 | 100 | 0.0 | 0.0 | 0.00 | 0.21 | 0.00 | 1011.4 | |
| 20260905094531 | 0 | 100 | 0.0 | 1.0 | 0.00 | 0.21 | 0.00 | 1011.3 | |
| 20260905094029 | 0 | 100 | 0.0 | 1.0 | 0.00 | 0.21 | 0.00 | 1011.2 | |
| 20260905093528 | 0 | 117 | 0.0 | 1.0 | 0.00 | 0.21 | 0.00 | 1011.3 | |
| 20260905093027 | 0 | 88 | 0.0 | 1.0 | 0.00 | 0.21 | 0.00 | 1011.3 | |
| 20260905092525 | 0 | 122 | 0.0 | 0.0 | 0.00 | 0.21 | 0.00 | 1011.2 | |
| 20260905092025 | 0 | 122 | 0.0 | 0.0 | 0.00 | 0.21 | 0.00 | 1011.1 | |
| 20260905091526 | 0 | 122 | 0.0 | 0.0 | 0.00 | 0.21 | 0.00 | 1011.3 | |
| 20260905091022 | 0 | 122 | 0.0 | 0.0 | 0.00 | 0.21 | 0.00 | 1011.2 | |
| 20260905090520 | 0 | 122 | 0.0 | 1.0 | 0.00 | 0.21 | 0.00 | 1011.2 | |
| 20260905090020 | 0 | 122 | 0.0 | 2.0 | 0.00 | 0.21 | 0.00 | 1011.2 | |
| 20260905085516 | 0 | 115 | 0.0 | 2.0 | 0.00 | 0.21 | 0.00 | 1011.3 | |
| 20260905085016 | 0 | 126 | 1.0 | 2.0 | 0.00 | 0.21 | 0.00 | 1011.2 | |
| 20260905084513 | 0 | 98 | 0.0 | 0.0 | 0.00 | 0.21 | 0.00 | 1011.2 | |
| 20260905084012 | 0 | 97 | 0.0 | 0.0 | 0.00 | 0.21 | 0.00 | 1011.4 | |
| 20260905083511 | 0 | 97 | 0.0 | 0.0 | 0.00 | 0.21 | 0.00 | 1011.3 | |
| 20260905083010 | 0 | 97 | 0.0 | 0.0 | 0.00 | 0.21 | 0.00 | 1011.3 | |
| 20260905082509 | 0 | 97 | 0.0 | 1.0 | 0.00 | 0.21 | 0.00 | 1011.4 | |
| 20260905082008 | 0 | 106 | 0.0 | 1.0 | 0.00 | 0.21 | 0.00 | 1011.4 | |
| 20260905081505 | 0 | 122 | 0.0 | 1.0 | 0.00 | 0.21 | 0.00 | 1011.4 | |
| 20260905081006 | 0 | 111 | 0.0 | 1.0 | 0.00 | 0.21 | 0.00 | 1011.4 | |
| 20260905080502 | 0 | 115 | 0.0 | 0.0 | 0.00 | 0.21 | 0.00 | 1011.5 | |
| 20260905080002 | 0 | 115 | 0.0 | 0.0 | 0.00 | 0.21 | 0.00 | 1011.5 | |
| 20260905075703 | 0 | 115 | 0.0 | 0.0 | 0.00 | 0.21 | 0.00 | 1011.5 | |
| 20260905075057 | 0 | 115 | 0.0 | 1.0 | 0.00 | 0.21 | 0.00 | 1011.5 | |
| 20260905074557 | 0 | 108 | 0.0 | 2.0 | 0.00 | 0.21 | 0.00 | 1011.6 | |
| 20260905074056 | 0 | 107 | 0.0 | 2.0 | 0.00 | 0.21 | 0.00 | 1011.7 | |
| 20260905073553 | 0 | 121 | 0.0 | 0.0 | 0.00 | 0.21 | 0.00 | 1011.7 | |
| 20260905073055 | 0 | 121 | 0.0 | 0.0 | 0.00 | 0.21 | 0.00 | 1011.7 | |
| 20260905072551 | 0 | 121 | 0.0 | 0.0 | 0.00 | 0.21 | 0.00 | 1011.7 | |
| 20260905072050 | 0 | 121 | 0.0 | 1.0 | 0.00 | 0.21 | 0.00 | 1011.7 | |
| 20260905071548 | 0 | 121 | 0.0 | 2.0 | 0.00 | 0.21 | 0.00 | 1011.7 | |
| 20260905071047 | 0 | 122 | 0.0 | 2.0 | 0.00 | 0.21 | 0.00 | 1011.8 | |
| 20260905070549 | 0 | 15 | 0.0 | 1.0 | 0.00 | 0.21 | 0.00 | 1011.9 | |
| 20260905070044 | 0 | 114 | 0.0 | 1.0 | 0.00 | 0.21 | 0.00 | 1012.0 | |
| 20260905065543 | 0 | 111 | 0.0 | 0.0 | 0.00 | 0.21 | 0.00 | 1012.0 | |
| 20260905065041 | 0 | 111 | 0.0 | 1.0 | 0.00 | 0.21 | 0.00 | 1012.1 | |
| 20260905064539 | 0 | 111 | 0.0 | 1.0 | 0.00 | 0.21 | 0.00 | 1012.0 | |
| 20260905064040 | 0 | 111 | 0.0 | 1.0 | 0.00 | 0.21 | 0.00 | 1012.0 | |
| 20260905063538 | 0 | 103 | 0.0 | 2.0 | 0.00 | 0.21 | 0.00 | 1012.1 | |
| 20260905063037 | 0 | 98 | 0.0 | 2.0 | 0.00 | 0.21 | 0.00 | 1012.0 | |
| 20260905062539 | 0 | 86 | 0.0 | 0.0 | 0.00 | 0.21 | 0.00 | 1012.1 | |
| 20260905062033 | 0 | 86 | 0.0 | 0.0 | 0.00 | 0.21 | 0.00 | 1012.2 | |
| 20260905061534 | 0 | 86 | 0.0 | 0.0 | 0.00 | 0.21 | 0.00 | 1012.3 | |
| 20260905061031 | 0 | 86 | 0.0 | 1.0 | 0.00 | 0.21 | 0.00 | 1012.3 | |
| 20260905060530 | 0 | 86 | 0.0 | 1.0 | 0.00 | 0.21 | 0.00 | 1012.5 | |
| 20260905060029 | 0 | 97 | 0.0 | 1.0 | 0.00 | 0.21 | 0.00 | 1012.6 | |
| 20260905055527 | 0 | 117 | 0.0 | 1.0 | 0.00 | 0.21 | 0.00 | 1012.7 | |
| 20260905055025 | 0 | 112 | 0.0 | 0.0 | 0.00 | 0.21 | 0.00 | 1012.8 | |
| 20260905054524 | 0 | 112 | 0.0 | 0.0 | 0.00 | 0.21 | 0.00 | 1012.8 | |
| 20260905054022 | 0 | 112 | 0.0 | 2.0 | 0.00 | 0.21 | 0.00 | 1012.9 | |
| 20260905053521 | 0 | 112 | 0.0 | 2.0 | 0.00 | 0.21 | 0.00 | 1013.0 | |
| 20260905053019 | 0 | 125 | 0.0 | 2.0 | 0.00 | 0.21 | 0.00 | 1013.0 | |
| 20260905052522 | 0 | 112 | 0.0 | 1.0 | 0.00 | 0.21 | 0.00 | 1013.2 | |
| 20260905052019 | 0 | 78 | 0.0 | 0.0 | 0.00 | 0.21 | 0.00 | 1013.3 | |
| 20260905051516 | 0 | 76 | 0.0 | 0.0 | 0.00 | 0.21 | 0.00 | 1013.4 | |
| 20260905051013 | 0 | 76 | 0.0 | 1.0 | 0.00 | 0.21 | 0.00 | 1013.4 | |
| 20260905050514 | 0 | 76 | 0.0 | 1.0 | 0.00 | 0.21 | 0.00 | 1013.4 | |
| 20260905050015 | 0 | 104 | 0.0 | 1.0 | 0.00 | 0.21 | 0.00 | 1013.5 | |
| 20260905045611 | 0 | 76 | 0.0 | 1.0 | 0.00 | 0.21 | 0.00 | 1013.7 | |
| 20260905045007 | 0 | 86 | 0.0 | 1.0 | 0.00 | 0.21 | 0.00 | 1013.7 | |
| 20260905044506 | 0 | 85 | 0.0 | 0.0 | 0.00 | 0.21 | 0.00 | 1013.8 | |
| 20260905044007 | 0 | 85 | 0.0 | 1.0 | 0.00 | 0.21 | 0.00 | 1013.8 | |
| 20260905043505 | 0 | 84 | 0.0 | 1.0 | 0.00 | 0.21 | 0.00 | 1013.6 | |
| 20260905043002 | 0 | 64 | 0.0 | 1.0 | 0.00 | 0.21 | 0.00 | 1013.8 | |
| 20260905042600 | 0 | 76 | 0.0 | 1.0 | 0.00 | 0.21 | 0.00 | 1013.8 | |
| 20260905042159 | 0 | 26 | 0.0 | 1.0 | 0.00 | 0.21 | 0.00 | 1014.0 | |
| 20260905041600 | 0 | 121 | 0.0 | 1.0 | 0.00 | 0.21 | 0.00 | 1013.9 | |
| 20260905041057 | 0 | 121 | 0.0 | 1.0 | 0.00 | 0.21 | 0.00 | 1014.0 | |
| 20260905040554 | 0 | 121 | 0.0 | 1.0 | 0.00 | 0.21 | 0.00 | 1014.0 | |
| 20260905035555 | 0 | 74 | 0.0 | 1.0 | 0.00 | 0.21 | 0.21 | 1014.0 | |
| 20260905035052 | 0 | 56 | 0.0 | 1.0 | 0.00 | 0.21 | 0.21 | 1014.0 | |
| 20260905034602 | 0 | 102 | 0.0 | 0.0 | 0.00 | 0.21 | 0.21 | 1014.0 | |
| 20260905034046 | 0 | 102 | 0.0 | 1.0 | 0.00 | 0.21 | 0.21 | 1014.2 | |
| 20260905033544 | 0 | 93 | 0.0 | 2.0 | 0.00 | 0.21 | 0.21 | 1014.2 | |
| 20260905033109 | 0 | 113 | 0.0 | 2.0 | 0.00 | 0.21 | 0.21 | 1014.1 | |
| 20260905032542 | 0 | 127 | 0.0 | 2.0 | 0.00 | 0.21 | 0.21 | 1014.0 | |
| 20260905032044 | 0 | 122 | 0.0 | 1.0 | 0.00 | 0.21 | 0.21 | 1014.0 | |
| 20260905031551 | 0 | 134 | 0.0 | 2.0 | 0.00 | 0.21 | 0.21 | 1013.9 | |
| 20260905031037 | 0 | 134 | 0.0 | 2.0 | 0.00 | 0.21 | 0.21 | 1013.9 | |
| 20260905030536 | 0 | 159 | 0.0 | 2.0 | 0.00 | 0.21 | 0.21 | 1013.9 | |
| 20260905030050 | 0 | 107 | 0.0 | 2.0 | 0.00 | 0.21 | 0.21 | 1013.9 | |
| 20260905025535 | 0 | 119 | 0.0 | 2.0 | 0.00 | 0.21 | 0.21 | 1013.9 | |
| 20260905025031 | 0 | 133 | 0.0 | 2.0 | 0.00 | 0.21 | 0.21 | 1013.9 | |
| 20260905024530 | 0 | 134 | 0.0 | 2.0 | 0.00 | 0.21 | 0.21 | 1014.0 | |
| 20260905024028 | 0 | 145 | 1.0 | 2.0 | 0.00 | 0.21 | 0.21 | 1014.2 | |
| 20260905023527 | 0 | 126 | 0.0 | 2.0 | 0.00 | 0.21 | 0.21 | 1014.3 | |
| 20260905023026 | 0 | 78 | 0.0 | 2.0 | 0.00 | 0.21 | 0.21 | 1014.2 | |
| 20260905022524 | 0 | 125 | 1.0 | 2.0 | 0.00 | 0.21 | 0.21 | 1014.3 | |
| 20260905022026 | 0 | 138 | 0.0 | 1.0 | 0.00 | 0.21 | 0.21 | 1014.2 | |
| 20260905021521 | 0 | 138 | 0.0 | 3.0 | 0.00 | 0.21 | 0.21 | 1014.3 | |
| 20260905021020 | 0 | 148 | 1.0 | 3.0 | 0.00 | 0.21 | 0.21 | 1014.2 | |
| 20260905020520 | 0 | 128 | 1.0 | 2.0 | 0.00 | 0.21 | 0.21 | 1014.3 | |
| 20260905020019 | 0 | 114 | 1.0 | 2.0 | 0.00 | 0.21 | 0.21 | 1014.3 | |
| 20260905015515 | 0 | 130 | 0.0 | 2.0 | 0.00 | 0.21 | 0.21 | 1014.3 | |
| 20260905015013 | 0 | 128 | 0.0 | 3.0 | 0.00 | 0.21 | 0.21 | 1014.4 | |
| 20260905014511 | 0 | 128 | 0.0 | 3.0 | 0.00 | 0.21 | 0.21 | 1014.3 | |
| 20260905014010 | 0 | 142 | 1.0 | 2.0 | 0.00 | 0.21 | 0.21 | 1014.3 | |
| 20260905013509 | 0 | 132 | 0.0 | 2.0 | 0.00 | 0.21 | 0.21 | 1014.3 | |
| 20260905013014 | 0 | 113 | 0.0 | 2.0 | 0.00 | 0.21 | 0.21 | 1014.4 | |
| 20260905012506 | 0 | 131 | 0.0 | 1.0 | 0.00 | 0.21 | 0.21 | 1014.3 | |
| 20260905012007 | 0 | 123 | 0.0 | 1.0 | 0.00 | 0.21 | 0.21 | 1014.0 | |
| 20260905011504 | 0 | 123 | 0.0 | 2.0 | 0.00 | 0.21 | 0.21 | 1013.9 | |
| 20260905011005 | 0 | 104 | 0.0 | 2.0 | 0.00 | 0.21 | 0.21 | 1013.6 | |
| 20260905010602 | 0 | 112 | 0.0 | 2.0 | 0.00 | 0.21 | 0.21 | 1013.5 | |
| 20260905010109 | 0 | 136 | 0.0 | 2.0 | 0.00 | 0.21 | 0.21 | 1013.3 | |
| 20260905005557 | 0 | 100 | 0.0 | 2.0 | 0.00 | 0.21 | 0.21 | 1013.4 | |
| 20260905005059 | 0 | 33 | 0.0 | 3.0 | 0.00 | 0.21 | 0.21 | 1013.2 | |
| 20260905004558 | 0 | 130 | 0.0 | 3.0 | 0.00 | 0.21 | 0.21 | 1013.1 | |
| 20260905004053 | 0 | 118 | 1.0 | 2.0 | 0.00 | 0.21 | 0.21 | 1013.4 | |
| 20260905003553 | 0 | 114 | 0.0 | 1.0 | 0.01 | 0.21 | 0.21 | 1013.3 | |
| 20260905003051 | 0 | 98 | 0.0 | 1.0 | 0.01 | 0.21 | 0.21 | 1013.1 | |
| 20260905002549 | 0 | 15 | 0.0 | 2.0 | 0.01 | 0.21 | 0.21 | 1012.8 | |
| 20260905002047 | 0 | 88 | 0.0 | 2.0 | 0.01 | 0.21 | 0.21 | 1012.6 | |
| 20260905001554 | 0 | 98 | 0.0 | 2.0 | 0.01 | 0.21 | 0.21 | 1012.4 | |
| 20260905001044 | 0 | 107 | 0.0 | 2.0 | 0.01 | 0.21 | 0.21 | 1012.1 | |
| 20260905000542 | 0 | 73 | 0.0 | 2.0 | 0.04 | 0.21 | 0.21 | 1012.5 | |
| 20260905000041 | 0 | 98 | 0.0 | 2.0 | 0.07 | 0.21 | 0.21 | 1012.2 | |
| 20260904235541 | 0 | 97 | 0.0 | 2.0 | 0.07 | 0.21 | 0.21 | 1012.0 | |
| 20260904235038 | 0 | 132 | 0.0 | 1.0 | 0.07 | 0.21 | 0.21 | 1012.0 | |
| 20260904234536 | 0 | 110 | 0.0 | 2.0 | 0.07 | 0.21 | 0.21 | 1011.9 | |
| 20260904234039 | 0 | 116 | 0.0 | 3.0 | 0.07 | 0.21 | 0.21 | 1012.1 | |
| 20260904233536 | 0 | 139 | 0.0 | 3.0 | 0.06 | 0.20 | 0.20 | 1012.7 | |
| 20260904233043 | 0 | 135 | 1.0 | 3.0 | 0.06 | 0.20 | 0.20 | 1013.1 | |
| 20260904232536 | 0 | 159 | 0.0 | 2.0 | 0.06 | 0.20 | 0.20 | 1013.9 | |
| 20260904232037 | 0 | 119 | 0.0 | 2.0 | 0.06 | 0.20 | 0.20 | 1014.6 | |
| 20260904231540 | 0 | 133 | 0.0 | 2.0 | 0.06 | 0.20 | 0.20 | 1015.1 | |
| 20260904231036 | 0 | 180 | 0.0 | 2.0 | 0.08 | 0.20 | 0.20 | 1015.1 | |
| 20260904230535 | 0 | 127 | 0.0 | 2.0 | 0.16 | 0.16 | 0.16 | 1014.7 | |
| 20260904230100 | 0 | 140 | 1.0 | 3.0 | 0.14 | 0.14 | 0.14 | 1014.4 | |
| 20260904225536 | 0 | 148 | 0.0 | 3.0 | 0.14 | 0.14 | 0.14 | 1014.4 | |
| 20260904225034 | 0 | 128 | 0.0 | 3.0 | 0.14 | 0.14 | 0.14 | 1014.7 | |
| 20260904224535 | 0 | 131 | 1.0 | 3.0 | 0.14 | 0.14 | 0.14 | 1014.5 | |
| 20260904224034 | 0 | 148 | 0.0 | 2.0 | 0.14 | 0.14 | 0.14 | 1014.9 | |
| 20260904223534 | 0 | 120 | 0.0 | 2.0 | 0.14 | 0.14 | 0.14 | 1014.9 | |
| 20260904223035 | 0 | 148 | 0.0 | 3.0 | 0.14 | 0.14 | 0.14 | 1014.5 | |
| 20260904222533 | 0 | 130 | 1.0 | 3.0 | 0.14 | 0.14 | 0.14 | 1014.1 | |
| 20260904222033 | 0 | 95 | 0.0 | 3.0 | 0.14 | 0.14 | 0.14 | 1014.0 | |
| 20260904221531 | 0 | 19 | 1.0 | 9.0 | 0.14 | 0.14 | 0.14 | 1013.7 | |
| 20260904221030 | 0 | 92 | 2.0 | 9.0 | 0.12 | 0.12 | 0.12 | 1013.9 | |
| 20260904220528 | 0 | 48 | 2.0 | 5.0 | 0.00 | 0.00 | 0.00 | 1014.7 | |
| 20260904220028 | 0 | 340 | 1.0 | 9.0 | 0.00 | 0.00 | 0.00 | 1015.3 | |
| 20260904215526 | 0 | 102 | 1.0 | 6.0 | 0.00 | 0.00 | 0.00 | 1014.2 | |
| 20260904215025 | 0 | 71 | 2.0 | 9.0 | 0.00 | 0.00 | 0.00 | 1013.5 | |
| 20260904214524 | 0 | 50 | 1.0 | 8.0 | 0.00 | 0.00 | 0.00 | 1013.4 | |
| 20260904214024 | 0 | 328 | 2.0 | 8.0 | 0.00 | 0.00 | 0.00 | 1013.1 | |
| 20260904213525 | 0 | 104 | 3.0 | 6.0 | 0.00 | 0.00 | 0.00 | 1013.0 | |
| 20260904213028 | 0 | 342 | 1.0 | 5.0 | 0.00 | 0.00 | 0.00 | 1013.0 | |
| 20260904212521 | 0 | 13 | 0.0 | 2.0 | 0.00 | 0.00 | 0.00 | 1012.4 | |
| 20260904212025 | 0 | 118 | 0.0 | 2.0 | 0.00 | 0.00 | 0.00 | 1012.2 | |
| 20260904211520 | 0 | 48 | 0.0 | 2.0 | 0.00 | 0.00 | 0.00 | 1012.2 | |
| 20260904211019 | 0 | 133 | 0.0 | 2.0 | 0.00 | 0.00 | 0.00 | 1012.1 | |
| 20260904210518 | 0 | 118 | 0.0 | 2.0 | 0.00 | 0.00 | 0.00 | 1012.2 | |
| 20260904210017 | 0 | 115 | 0.0 | 1.0 | 0.00 | 0.00 | 0.00 | 1012.3 | |
| 20260904205515 | 0 | 113 | 0.0 | 1.0 | 0.00 | 0.00 | 0.00 | 1012.3 | |
| 20260904205013 | 0 | 138 | 0.0 | 2.0 | 0.00 | 0.00 | 0.00 | 1012.3 | |
| 20260904204521 | 0 | 143 | 0.0 | 2.0 | 0.00 | 0.00 | 0.00 | 1012.3 | |
| 20260904204011 | 0 | 360 | 0.0 | 2.0 | 0.00 | 0.00 | 0.00 | 1012.2 | |
| 20260904203510 | 0 | 57 | 0.0 | 2.0 | 0.00 | 0.00 | 0.00 | 1012.1 | |
| 20260904203015 | 0 | 343 | 0.0 | 2.0 | 0.00 | 0.00 | 0.00 | 1012.1 | |
| 20260904202510 | 0 | 128 | 0.0 | 2.0 | 0.00 | 0.00 | 0.00 | 1012.1 | |
| 20260904202004 | 0 | 124 | 1.0 | 2.0 | 0.00 | 0.00 | 0.00 | 1012.0 | |
| 20260904201503 | 0 | 121 | 0.0 | 2.0 | 0.00 | 0.00 | 0.00 | 1012.1 | |
| 20260904201001 | 0 | 66 | 0.0 | 2.0 | 0.00 | 0.00 | 0.00 | 1012.2 | |
| 20260904200600 | 0 | 5 | 0.0 | 2.0 | 0.00 | 0.00 | 0.00 | 1012.4 | |
| 20260904200100 | 0 | 120 | 0.0 | 2.0 | 0.00 | 0.00 | 0.00 | 1012.4 | |
| 20260904195559 | 0 | 86 | 0.0 | 2.0 | 0.00 | 0.00 | 0.00 | 1012.6 | |
| 20260904195054 | 0 | 10 | 0.0 | 2.0 | 0.00 | 0.00 | 0.00 | 1012.8 | |
| 20260904194554 | 0 | 360 | 0.0 | 2.0 | 0.00 | 0.00 | 0.00 | 1012.8 | |
| 20260904194052 | 0 | 150 | 0.0 | 2.0 | 0.00 | 0.00 | 0.00 | 1012.8 | |
| 20260904193551 | 0 | 18 | 1.0 | 2.0 | 0.00 | 0.00 | 0.00 | 1012.7 | |
| 20260904193050 | 0 | 130 | 0.0 | 2.0 | 0.00 | 0.00 | 0.00 | 1012.8 | |
| 20260904192547 | 0 | 136 | 0.0 | 3.0 | 0.00 | 0.00 | 0.00 | 1012.8 | |
| 20260904192050 | 0 | 117 | 1.0 | 3.0 | 0.00 | 0.00 | 0.00 | 1013.0 | |
| 20260904191547 | 0 | 9 | 1.0 | 2.0 | 0.00 | 0.00 | 0.00 | 1013.0 | |
| 20260904191045 | 0 | 144 | 0.0 | 2.0 | 0.00 | 0.00 | 0.00 | 1013.1 | |
| 20260904190546 | 0 | 117 | 1.0 | 2.0 | 0.00 | 0.00 | 0.00 | 1013.1 | |
| 20260904190044 | 0 | 197 | 0.0 | 3.0 | 0.00 | 0.00 | 0.00 | 1013.3 | |
| 20260904185543 | 0 | 121 | 0.0 | 2.0 | 0.00 | 0.00 | 0.00 | 1013.3 | |
| 20260904185036 | 0 | 59 | 0.0 | 2.0 | 0.00 | 0.00 | 0.00 | 1013.5 | |
| 20260904184535 | 0 | 165 | 0.0 | 2.0 | 0.00 | 0.00 | 0.00 | 1013.6 | |
| 20260904184034 | 0 | 344 | 1.0 | 2.0 | 0.00 | 0.00 | 0.00 | 1013.7 | |
| 20260904183534 | 0 | 98 | 1.0 | 3.0 | 0.00 | 0.00 | 0.00 | 1013.7 | |
| 20260904183031 | 0 | 348 | 1.0 | 3.0 | 0.00 | 0.00 | 0.00 | 1013.8 | |
| 20260904182530 | 0 | 112 | 0.0 | 3.0 | 0.00 | 0.00 | 0.00 | 1013.9 | |
| 20260904182028 | 0 | 355 | 0.0 | 3.0 | 0.00 | 0.00 | 0.00 | 1013.9 | |
| 20260904181534 | 0 | 119 | 0.0 | 3.0 | 0.00 | 0.00 | 0.00 | 1014.0 | |
| 20260904181026 | 0 | 128 | 0.0 | 3.0 | 0.00 | 0.00 | 0.00 | 1014.0 | |
| 20260904180524 | 0 | 112 | 1.0 | 3.0 | 0.00 | 0.00 | 0.00 | 1014.2 | |
| 20260904180023 | 0 | 29 | 1.0 | 3.0 | 0.00 | 0.00 | 0.00 | 1014.2 | |
| 20260904175521 | 0 | 109 | 0.0 | 3.0 | 0.00 | 0.00 | 0.00 | 1014.3 | |
| 20260904175020 | 0 | 342 | 1.0 | 3.0 | 0.00 | 0.00 | 0.00 | 1014.3 | |
| 20260904174518 | 0 | 344 | 0.0 | 3.0 | 0.00 | 0.00 | 0.00 | 1014.3 | |
| 20260904174016 | 0 | 76 | 1.0 | 3.0 | 0.00 | 0.00 | 0.00 | 1014.4 | |
| 20260904173515 | 0 | 37 | 1.0 | 3.0 | 0.00 | 0.00 | 0.00 | 1014.4 | |
| 20260904173013 | 0 | 340 | 1.0 | 2.0 | 0.00 | 0.00 | 0.00 | 1014.4 | |
| 20260904172512 | 0 | 30 | 0.0 | 2.0 | 0.00 | 0.00 | 0.00 | 1014.4 | |
| 20260904172013 | 0 | 335 | 0.0 | 3.0 | 0.00 | 0.00 | 0.00 | 1014.4 | |
| 20260904171509 | 0 | 115 | 1.0 | 3.0 | 0.00 | 0.00 | 0.00 | 1014.4 | |
| 20260904171008 | 0 | 339 | 0.0 | 2.0 | 0.00 | 0.00 | 0.00 | 1014.4 | |
| 20260904170506 | 0 | 109 | 0.0 | 2.0 | 0.00 | 0.00 | 0.00 | 1014.4 | |
| 20260904170005 | 0 | 111 | 1.0 | 2.0 | 0.00 | 0.00 | 0.00 | 1014.4 | |
| 20260904165503 | 0 | 92 | 1.0 | 2.0 | 0.00 | 0.00 | 0.00 | 1014.3 | |
| 20260904165001 | 0 | 22 | 1.0 | 3.0 | 0.00 | 0.00 | 0.00 | 1014.4 | |
| 20260904164623 | 0 | 88 | 0.0 | 3.0 | 0.00 | 0.00 | 0.00 | 1014.4 | |
| 20260904164058 | 0 | 30 | 1.0 | 3.0 | 0.00 | 0.00 | 0.00 | 1014.5 | |
| 20260904163558 | 0 | 103 | 1.0 | 3.0 | 0.00 | 0.00 | 0.00 | 1014.6 | |
| 20260904163057 | 0 | 104 | 0.0 | 3.0 | 0.00 | 0.00 | 0.00 | 1014.6 | |
| 20260904162554 | 0 | 121 | 1.0 | 3.0 | 0.00 | 0.00 | 0.00 | 1014.6 | |
| 20260904162055 | 0 | 342 | 1.0 | 3.0 | 0.00 | 0.00 | 0.00 | 1014.8 | |
| 20260904161552 | 0 | 90 | 1.0 | 3.0 | 0.00 | 0.00 | 0.00 | 1014.8 | |
| 20260904161050 | 0 | 84 | 0.0 | 2.0 | 0.00 | 0.00 | 0.00 | 1014.8 | |
| 20260904160548 | 0 | 184 | 1.0 | 3.0 | 0.00 | 0.00 | 0.00 | 1014.9 | |
| 20260904160047 | 0 | 128 | 1.0 | 3.0 | 0.00 | 0.00 | 0.00 | 1014.9 | |
| 20260904155545 | 0 | 11 | 1.0 | 3.0 | 0.00 | 0.00 | 0.00 | 1015.1 | |
| 20260904155044 | 0 | 103 | 0.0 | 3.0 | 0.00 | 0.00 | 0.00 | 1015.0 | |
| 20260904154542 | 0 | 17 | 1.0 | 3.0 | 0.00 | 0.00 | 0.00 | 1015.1 | |
| 20260904154041 | 0 | 60 | 1.0 | 2.0 | 0.00 | 0.00 | 0.00 | 1015.0 | |
| 20260904153539 | 0 | 173 | 0.0 | 2.0 | 0.00 | 0.00 | 0.00 | 1015.0 | |
| 20260904153057 | 0 | 76 | 1.0 | 2.0 | 0.00 | 0.00 | 0.00 | 1015.1 |